SCP
1 1 1 1 1 1 2 2 1 1 1 1 1 1 1 1 0 1 1 1 1 1 1 1 1 1 1 1 1 1 2 2 2 2 2 2 2 1
1 1 1 1 1 1 1 1 1 1 1 1 1 1 1 1 1 0 1 1 1 1 1 1 1 1 1 1 1 1 1 2 2 2 2 2 2 2
1 1 1 1 1 1 1 1 1 1 1 1 1 1 1 1 1 0 0 1 1 1 1 1 1 1 0 0 0 1 1 1 2 2 2 2 2 2
1 2 2 1 1 1 1 2 2 2 2 2 2 2 2 1 1 1 0 1 1 1 1 1 1 0 0 0 0 0 0 1 1 1 2 2 2 2
2 2 2 2 2 2 2 2 2 2 3 2 2 2 2 2 1 1 1 1 1 1 1 0 0 0 0 0 0 0 0 0 0 1 1 1 2 2
2 2 2 2 2 2 2 2 2 3 3 3 3 3 2 2 2 2 1 1 1 1 1 0 0 0 0 0 0 0 0 0 0 0 0 1 1 1
2 2 2 2 2 2 1 2 2 2 3 3 3 2 2 2 2 2 2 2 2 1 1 1 0 0 0 0 0 0 0 0 0 0 0 0 0 0
2 2 2 2 2 2 1 1 2 2 2 2 2 2 2 2 2 2 2 2 2 2 2 1 1 0 0 0 0 0 0 0 0 0 0 0 0 0
4 3 3 2 2 2 2 1 1 2 2 2 2 2 2 2 1 1 1 2 2 2 2 2 1 1 0 0 0 0 0 0 0 0 0 0 0 0
5 4 4 3 3 2 2 2 2 2 2 2 2 2 2 2 1 1 1 1 2 2 2 2 2 2 1 0 0 0 0 0 0 0 0 0 0 0
4 4 4 3 3 3 3 3 3 2 2 2 2 2 2 1 1 1 1 1 1 2 2 2 2 2 1 1 0 0 0 0 0 0 0 0 0 0
3 3 3 3 2 2 2 3 3 2 2 2 1 1 1 1 1 1 2 2 2 1 2 2 2 2 2 1 1 0 0 0 0 0 0 0 0 0
3 3 2 2 1 1 1 2 2 2 2 2 2 2 2 2 2 2 2 2 2 2 2 1 2 2 2 2 1 0 0 0 0 0 0 0 0 0
3 3 2 2 1 1 1 1 1 1 2 2 2 2 2 2 3 3 3 3 3 2 2 2 2 2 2 2 1 0 0 0 0 0 0 0 0 0
4 3 2 1 0 0 0 0 1 1 2 2 2 2 2 2 3 3 4 4 3 3 3 2 2 2 2 2 1 1 0 0 0 0 0 0 0 0
2 2 1 1 1 1 1 1 1 1 2 2 2 2 2 2 2 3 4 4 4 4 4 3 3 3 2 2 1 1 1 0 0 0 0 0 0 0
1 1 1 1 1 1 1 1 1 1 2 2 2 2 2 2 2 3 3 4 4 4 4 4 4 3 3 2 2 1 1 1 1 0 0 0 0 0
1 2 2 2 2 2 2 1 1 1 1 2 2 2 2 2 2 2 3 3 3 4 4 4 4 4 3 2 2 1 1 1 1 1 1 0 0 0
2 2 2 3 3 3 3 2 1 1 2 2 2 2 2 2 3 3 3 3 3 3 3 4 4 4 3 2 1 1 1 1 1 1 1 1 0 0
2 2 2 3 3 3 3 2 2 1 2 2 3 2 2 2 3 3 4 4 4 3 4 4 3 3 2 2 1 1 1 1 2 2 1 1 0 0
2 2 2 2 3 3 3 2 2 2 2 2 3 2 2 2 2 3 4 5 4 4 4 3 3 2 2 1 1 1 1 1 1 1 1 1 0 0
1 1 2 2 2 2 2 2 2 2 2 2 2 2 1 1 2 3 4 5 5 4 3 3 2 2 1 1 1 1 1 0 0 0 0 0 0 0
1 1 1 1 1 1 1 1 2 2 3 3 2 2 1 1 2 3 4 5 5 4 3 3 2 2 2 1 1 1 1 0 0 0 0 0 0 0
Wind_Speed
1 1 1 1 0 1 2 3 3 1 2 3 2 2 2 2 3 3 3 5 7 7 7 7 7 6 6 5 5 5 5 5 4 4 5 5 6 7
1 1 1 1 0 0 1 1 2 3 2 3 3 3 2 2 3 3 3 5 7 7 7 8 7 7 7 7 6 7 7 7 6 6 6 5 6 6
1 1 1 1 0 0 0 1 1 2 2 3 2 2 1 2 1 2 2 2 3 7 7 8 8 8 8 8 7 7 7 8 8 7 7 7 7 6
2 2 2 1 1 1 1 1 1 2 2 2 2 1 2 2 2 2 2 3 3 6 8 8 8 8 8 8 8 8 7 7 8 8 8 8 8 8
3 3 3 2 2 2 2 2 2 1 1 2 2 2 2 1 1 2 3 2 4 4 6 7 8 8 8 8 8 8 7 7 7 7 7 7 7 8
3 3 3 3 4 3 2 3 2 1 1 1 2 2 2 2 0 1 2 2 3 3 3 3 5 8 8 8 8 8 8 8 8 8 7 7 8 8
3 3 4 4 5 4 3 3 2 2 1 1 2 1 2 1 2 2 3 3 3 3 2 2 2 3 4 7 9 10 9 9 9 9 8 8 8 8
4 3 3 3 4 5 5 5 4 4 3 2 2 3 4 3 2 2 2 1 3 3 2 3 2 3 4 4 7 9 9 9 10 10 9 9 8 8
4 4 4 3 3 2 3 4 4 6 6 5 4 5 5 5 3 3 3 3 5 3 2 4 3 4 4 5 8 8 9 9 10 10 9 9 9 9
4 4 3 3 3 3 2 3 4 5 6 5 6 6 6 5 5 5 5 4 4 3 2 3 3 4 4 3 6 8 8 9 10 10 10 10 10 9
3 3 3 4 5 4 3 4 5 5 6 7 7 7 7 6 4 1 1 1 3 3 2 2 3 3 3 4 5 7 8 9 10 10 10 10 9 8
3 3 5 5 6 5 5 5 6 6 4 4 4 5 5 5 5 4 4 3 3 3 3 2 2 1 3 3 3 3 4 7 8 9 9 9 8 5
3 4 4 6 6 6 5 6 8 6 3 3 3 4 3 3 3 3 4 4 4 4 3 2 2 2 2 3 3 2 3 3 3 4 7 9 9 8
4 4 4 6 6 5 4 6 6 4 2 2 3 3 3 4 4 4 5 5 5 6 4 3 2 2 2 3 3 3 2 3 3 3 3 5 7 9
4 6 5 5 4 4 6 6 4 2 2 2 4 5 4 4 3 2 3 3 4 4 4 3 3 3 3 4 4 3 2 3 3 3 3 4 4 4
4 5 5 4 3 3 3 3 2 2 3 4 4 4 2 2 2 2 2 2 3 4 4 4 5 4 4 5 4 4 3 3 3 3 3 4 4 5
2 1 1 1 1 2 2 2 2 2 3 3 3 3 3 3 3 2 2 2 2 4 4 4 4 4 5 4 4 5 4 4 4 3 3 3 4 5
2 1 2 2 3 3 3 3 2 3 3 3 3 3 3 3 3 2 2 2 3 4 4 3 2 2 2 4 6 5 4 4 4 3 3 3 4 4
3 3 3 3 4 4 4 3 4 4 3 3 3 3 3 3 3 3 3 3 3 3 4 3 2 1 3 5 5 4 4 4 3 3 3 4 5 5
3 4 4 4 4 4 4 4 3 3 2 2 2 2 2 2 3 3 3 3 3 3 3 3 2 3 4 5 5 4 5 4 3 3 3 3 3 3
4 4 4 4 4 4 3 3 3 2 2 2 2 2 2 3 3 3 3 3 3 3 4 4 5 5 3 2 3 4 4 5 5 3 3 2 2 2
4 4 4 3 3 3 3 2 2 2 2 2 2 3 3 3 3 3 3 3 3 3 4 4 3 2 1 2 4 4 4 4 5 5 4 4 3 4
3 3 3 3 2 2 2 2 2 2 2 2 3 3 2 2 3 3 3 3 3 3 3 3 2 1 2 3 3 4 4 4 3 3 4 5 7 8
Wind_Direction
224 225 224 260 205 186 169 162 161 227 284 273 274 271 235 211 218 212 223 228 227 229 229 228 230 234 236 238 241 238 235 232 233 234 237 238 237 235
212 192 264 274 280 144 158 155 159 172 232 260 249 258 235 224 216 219 233 240 239 238 233 231 232 234 237 235 236 233 229 227 228 231 234 234 236 238
241 206 241 248 256 275 183 155 167 160 212 269 266 270 237 254 254 251 246 238 251 245 241 236 233 234 237 237 233 234 233 230 230 232 233 233 233 234
230 222 241 227 235 242 221 232 229 200 190 245 273 270 251 248 246 248 254 249 250 252 244 242 237 235 236 238 234 233 235 236 237 237 237 235 230 231
211 212 225 205 231 237 227 239 244 244 197 211 260 262 267 283 289 275 270 268 261 259 247 242 242 240 238 235 235 234 233 236 238 236 236 235 232 232
215 214 218 209 217 224 229 234 229 230 222 224 262 273 274 284 303 267 288 274 266 270 263 245 244 244 245 239 238 237 236 239 238 234 230 229 230 233
228 227 228 220 221 222 225 219 207 208 214 225 251 272 276 285 259 243 255 277 275 257 263 257 246 251 248 245 243 242 237 236 238 237 232 228 229 232
226 240 244 234 237 236 233 219 201 202 213 214 232 238 251 244 243 238 241 275 283 260 227 261 225 246 250 239 241 238 237 236 235 234 232 229 228 229
224 233 248 245 234 240 247 243 241 234 213 204 218 233 235 232 222 238 233 232 245 249 210 265 249 251 251 251 240 234 235 237 237 234 229 227 227 228
234 227 230 248 250 231 240 258 256 252 236 224 224 234 236 227 211 217 224 241 266 267 199 246 257 251 260 255 244 235 239 240 239 235 230 227 225 225
256 235 225 236 250 236 228 249 263 267 259 245 241 246 249 241 218 190 228 235 274 276 226 214 251 263 268 261 258 248 242 241 240 238 233 227 222 220
266 257 243 241 252 235 221 228 249 258 264 268 265 272 266 261 235 208 207 215 241 265 243 207 245 246 283 271 258 259 255 252 248 245 237 229 218 212
248 256 259 258 256 242 224 224 236 243 246 246 255 264 268 265 254 233 216 209 219 244 242 199 233 231 234 273 280 254 240 250 247 246 237 228 216 205
246 251 256 260 252 243 233 246 245 240 242 248 262 264 262 262 259 247 235 231 230 239 241 197 215 225 232 260 269 268 251 247 235 236 231 225 222 218
251 260 270 269 261 255 253 256 248 221 218 243 253 258 256 257 261 263 262 252 257 262 255 222 221 232 223 237 251 251 264 264 237 233 228 219 214 206
264 272 266 259 251 261 276 270 244 223 218 238 254 265 274 272 262 254 259 261 263 273 265 245 233 224 238 247 241 249 238 244 248 242 238 237 227 213
251 278 286 280 269 275 277 273 257 251 246 250 252 266 269 265 269 263 254 254 252 268 281 278 259 244 236 235 250 252 247 247 244 234 227 242 242 227
182 232 244 244 246 249 253 258 251 247 248 246 245 248 254 258 267 272 259 249 257 261 267 274 295 309 301 268 231 243 248 245 246 233 219 231 253 247
197 228 235 237 241 242 242 242 246 248 242 239 247 251 254 259 260 261 261 260 261 265 267 265 255 244 276 283 275 227 238 254 246 239 232 227 242 249
226 233 234 236 237 238 240 240 246 255 251 246 249 255 255 255 262 265 261 260 265 269 275 270 252 240 242 256 268 272 245 240 242 244 245 244 256 268
232 238 240 240 243 242 242 241 240 246 252 249 253 249 247 243 253 260 261 265 265 268 271 270 265 266 255 266 283 286 280 259 247 239 229 234 258 260
239 242 244 243 241 242 241 239 244 254 260 258 258 253 243 234 242 253 258 262 261 259 264 271 281 288 258 252 268 274 284 297 293 282 247 209 197 215
239 242 245 242 236 238 239 235 235 251 254 258 261 258 249 244 245 243 247 252 262 267 272 278 290 284 259 251 261 271 281 288 292 298 289 272 253 253